1,427,280개(14373/71364페이지)
LECTURE
번호 제목 글쓴이 조회 날짜
1139840 Trực Tiếp Bóng Đá Việt Nam Hôm Nay 25 DegnMays1858 5 2022.03.29 17:03
1139839 Here Is Everything You Need To Know Abou GottliebMullen2227 4 2022.03.29 17:02
1139838 Basics Of Texas Hold'em Poker ListLin3926 5 2022.03.29 17:02
1139837 kelebihan games judi slots online yang h 사진 CoyneKaplan8801 4 2022.03.29 17:02
1139836 Review Pelancar ASI Mom Uung, ASI Lancar KoldSalinas0689 5 2022.03.29 17:01
1139835 Pemahaman Kata TURN Oper DALAM PERMAINAN VognsenVazquez8994 4 2022.03.29 17:01
1139834 K+ Trực Tiếp Bóng Đá Ngoại Hạng Anh, Cup WeinreichHirsch4175 6 2022.03.29 17:01
1139833 SlotGacor: 14 Daftar Web Slot Online Gac 사진 SunesenAnderson0662 33 2022.03.29 17:01
1139832 Make Your Mink Lash A Reality JarvisGravgaard0702 6 2022.03.29 17:01
1139831 Web Judi Slot Paling Gacor & Nomor 1 사진 TrujilloStout1797 56 2022.03.29 17:01
1139830 mengapa mesti studi teknik kerja slots 사진 LindgrenAnthony2313 6 2022.03.29 17:01
1139829 ENEA SA Raport Okresowy Półroczny Za 202 사진 GloverWalsh6614 4 2022.03.29 17:01
1139828 TURNAMENT FREE ROLL DALAM POKER ONLINE MartinussenMcCurdy2937 5 2022.03.29 17:00
1139827 Internet Marketing Is Big! Leran More Ab SnyderLeach7815 5 2022.03.29 17:00
1139826 Metode MEMBACA KARTU Saingan Oleh Gampan BunnFinn9551 5 2022.03.29 17:00
1139825 Top Five Tips For Designing Marketing St StoutHickman2730 5 2022.03.29 17:00
1139824 Football (Soccer), Betting Tip - Discove BraskBarker7684 8 2022.03.29 17:00
1139823 provider slots online terunggul yang waj FerrellFreedman5205 7 2022.03.29 17:00
1139822 Do You Know The Good Reasons To See Vrpo GrimesCrane2067 5 2022.03.29 17:00
1139821 ufanext 사진 PhelpsTempleton4425 5 2022.03.29 17:00